Weather History for Burlington, IA

Change the Weather History Date:

Thursday, October 20, 2011

  Actual Average Record
Temperature  
Mean Temperature 44 °F 54 °F  
Max Temperature 51 °F 65 °F 85 °F (1963)
Min Temperature 37 °F 43 °F 21 °F (1960)
Degree Days  
Heating Degree Days 21 12  
Month to date heating degree days 145 174  
Since 1 July heating degree days 283 245  
Cooling Degree Days 0 0  
Month to date cooling degree days 24 19  
Year to date cooling degree days 1244 1201  
Moisture  
Dew Point 32 °F    
Average Humidity 66    
Maximum Humidity 82    
Minimum Humidity 50    
Precipitation  
Precipitation 0.00 in 0.09 in 1.44 in (2005)
Month to date precipitation 0.89 2.07  
Year to date precipitation 27.01 32.84  
Sea Level Pressure  
Sea Level Pressure 29.87 in    
Wind  
Wind Speed 10 mph (NW)    
Max Wind Speed 20 mph    
Max Gust Speed 29 mph    
Visibility 10 miles    
Events      
T = Trace of Precipitation, MM = Missing Value Source: NWS Daily Summary

Daily Weather History Graph

Daily Weather History Graph

Search for Another Location

Airport:

Trip Planner

Search our weather history database for the weather conditions in past years. The results will help you decide how hot, cold, wet, or windy it might be!

Date:

Astronomy

Oct. 20, 2011 Rise Set
Actual Time 7:20 AM CDT 6:17 PM CDT
Civil Twilight 6:53 AM CDT 6:44 PM CDT
Nautical Twilight 6:21 AM CDT 7:16 PM CDT
Astronomical Twilight 5:49 AM CDT 7:48 PM CDT
Moon 12:03 AM CDT (10/20) 2:28 PM CDT (10/20)
Length of Visible Light 11h 51m
Length of Day
10h 56m
Last Quarter, 44% of the Moon is Illuminated
Oct 20
Last Quarter
Oct 26
New
Nov 2
First Quarter
Nov 10
Full
Nov 18
Last Quarter

Hourly Weather History & Observations

Time (CDT) Temp. Windchill Dew Point Humidity Pressure Visibility Wind Dir Wind Speed Gust Speed Precip Events Conditions
12:53 AM 43.0 °F 36.4 °F 32.0 °F 65% 29.81 in 10.0 mi NW 12.7 mph 19.6 mph N/A   Clear
1:53 AM 42.1 °F 34.9 °F 32.0 °F 67% 29.81 in 10.0 mi NNW 13.8 mph 23.0 mph N/A   Clear
2:53 AM 41.0 °F 33.9 °F 32.0 °F 70% 29.81 in 10.0 mi NW 12.7 mph 20.7 mph N/A   Clear
3:53 AM 39.9 °F 32.5 °F 32.0 °F 73% 29.80 in 10.0 mi NNW 12.7 mph 23.0 mph N/A   Clear
4:53 AM 39.0 °F 31.4 °F 32.0 °F 76% 29.80 in 10.0 mi NW 12.7 mph 19.6 mph N/A   Clear
5:53 AM 37.9 °F 30.9 °F 32.0 °F 79% 29.81 in 10.0 mi NW 10.4 mph 18.4 mph N/A   Clear
6:53 AM 37.9 °F 31.5 °F 32.0 °F 79% 29.81 in 10.0 mi NNW 9.2 mph 19.6 mph N/A   Clear
7:53 AM 37.0 °F 29.3 °F 32.0 °F 82% 29.82 in 10.0 mi NW 11.5 mph 20.7 mph N/A   Clear
8:53 AM 39.9 °F 33.9 °F 32.0 °F 73% 29.84 in 10.0 mi NW 9.2 mph 19.6 mph N/A   Clear
9:53 AM 44.1 °F 37.1 °F 33.1 °F 65% 29.85 in 10.0 mi NW 15.0 mph 23.0 mph N/A   Partly Cloudy
10:14 AM 44.6 °F 38.1 °F 33.8 °F 66% 29.85 in 9.0 mi NNW 13.8 mph 18.4 mph N/A   Mostly Cloudy
10:53 AM 44.1 °F 37.4 °F 33.1 °F 65% 29.85 in 10.0 mi NW 13.8 mph 23.0 mph N/A   Overcast
11:45 AM 46.4 °F 41.9 °F 32.0 °F 57% 29.84 in 10.0 mi NW 9.2 mph 24.2 mph N/A   Overcast
11:53 AM 46.0 °F 40.2 °F 33.1 °F 61% 29.86 in 10.0 mi NW 12.7 mph 20.7 mph N/A   Overcast
12:53 PM 48.0 °F - 33.1 °F 56% 29.85 in 10.0 mi NW 13.8 mph 25.3 mph N/A   Overcast
1:53 PM 48.9 °F - 32.0 °F 52% 29.86 in 10.0 mi NW 16.1 mph 25.3 mph N/A   Overcast
2:53 PM 48.9 °F - 32.0 °F 52% 29.87 in 10.0 mi NNW 16.1 mph 24.2 mph N/A   Overcast
3:53 PM 50.0 °F - 33.1 °F 52% 29.88 in 10.0 mi NW 12.7 mph 19.6 mph N/A   Scattered Clouds
4:53 PM 50.0 °F - 32.0 °F 50% 29.89 in 9.0 mi NNW 10.4 mph - N/A   Partly Cloudy
5:53 PM 50.0 °F - 32.0 °F 50% 29.90 in 10.0 mi Calm Calm - N/A   Clear
6:53 PM 39.2 °F - 30.2 °F 70% 29.90 in 10.0 mi Calm Calm - N/A   Clear
7:53 PM 42.1 °F 40.2 °F 32.0 °F 67% 29.94 in 10.0 mi West 3.5 mph - N/A   Clear
8:53 PM 43.0 °F 41.3 °F 30.0 °F 60% 29.95 in 10.0 mi WNW 3.5 mph - N/A   Clear
9:53 PM 43.0 °F 39.5 °F 28.9 °F 58% 29.97 in 10.0 mi WNW 5.8 mph - N/A   Clear
10:53 PM 41.0 °F 38.0 °F 28.0 °F 60% 29.99 in 10.0 mi NW 4.6 mph - N/A   Clear
11:53 PM 41.0 °F 37.1 °F 28.0 °F 60% 30.00 in 10.0 mi WNW 5.8 mph - N/A   Clear